User: anonymous   Login
Location: Ford County Road and Bridge Department
(37.7686°N, 99.9762°W)
Time: 19:54:53
(UTC+00:00)
Language:

Atlas Centaur 2 - Orbit

View from above orbital plane
View from above orbital plane
View from above satellite
View from above satellite

Ground track
Ground track

The orbit data is extracted from the following two-line orbital elements,

1   694U 63047A   20090.82980658  .00000230  00000-0  13759-4 0  9990
2   694  30.3601 323.7151 0585979 224.1186 131.1207 14.02586114825678
Epoch (UTC): 30 March 2020 19:54:55
Eccentricity: 0.0585979
inclination: 30.3601°
perigee height: 459 km
apogee height: 1310 km
right ascension of ascending node: 323.7151°
argument of perigee: 224.1186°
revolutions per day: 14.02586114
mean anomaly at epoch: 131.1207°
orbit number at epoch: 82567

The dashed part of the orbit path shows where the satellite is in the earth's shadow,  

DLR